Location: Estréelles
(50.5000°N, 1.7854°E)
Time: 10:03:25
(UTC+00:00)

Daily predictions for brighter satellites

Satellite Brightness Start Highest point End
(mag) Time Altitude Azimuth Time Altitude Azimuth Time Altitude Azimuth
Spot 2 Rocket 3.8 20:03:32 10° SE 20:08:24 55° ENE 20:13:20 10° N
Cosmos 1725 Rocket 4.0 20:03:46 10° S 20:10:00 75° E 20:16:14 10° NNE
Cosmos 2333 Rocket 2.9 20:04:49 10° NNW 20:10:15 43° NE 20:15:41 10° ESE
ATLAS 3B R/B 4.2 20:03:56 10° NW 20:10:48 36° WSW 20:17:16 10° S
ERS-1 Rocket 3.3 20:09:27 10° S 20:14:26 71° WSW 20:19:28 10° NNW
Tsikada Rocket 4.0 20:11:41 10° N 20:17:53 72° ENE 20:24:00 10° SSE
Cosmos 2360 Rocket 3.3 20:18:53 10° NNW 20:24:05 35° NE 20:29:13 10° ESE
Cosmos 2016 Rocket 4.0 20:18:21 10° S 20:24:36 87° E 20:30:49 10° N
Cosmos 1461 3.6 20:22:50 10° S 20:25:54 25° ESE 20:28:57 10° ENE
CZ-4B R/B 3.6 20:21:54 10° S 20:27:32 69° WSW 20:33:09 10° NNW
CZ-4C R/B 2.8 20:25:03 10° WSW 20:29:22 53° NW 20:35:00 10° NE
CZ-4B R/B 4.2 20:25:45 10° SE 20:30:04 36° ENE 20:34:29 10° N
Cosmos 1992 Rocket 4.1 20:25:40 10° S 20:30:45 56° ESE 20:35:51 10° NNE
YAOGAN 11 4.4 20:29:41 10° NNE 20:34:01 51° E 20:38:22 10° S
ISS -3.6 20:32:45 10° W 20:36:06 79° N 20:39:28 10° ENE
Cosmos 2219 Rocket 3.5 20:32:27 10° NNW 20:37:23 30° NE 20:42:20 10° ESE
Cosmos 1437 Rocket 3.3 20:36:40 10° SSE 20:39:51 32° E 20:43:06 10° NNE
SL-08 R/B 3.4 20:39:30 10° NNE 20:44:22 89° WNW 20:49:06 10° SSW
DEBRIS 3.2 20:43:04 10° WSW 20:46:00 72° SSE 20:54:32 10° E
Cosmos 1626 Rocket 3.5 20:42:18 10° N 20:46:42 80° E 20:51:00 10° SSE
Cosmos 1743 4.5 20:44:49 10° NW 20:47:12 22° W 20:49:35 10° SW
Cosmos 2098 Rocket 4.2 20:44:22 13° SE 20:47:49 27° E 20:51:23 10° NNE
NOSS 3-3 (A) 3.7 20:43:39 10° SW 20:48:52 82° SE 20:55:12 10° NE
Terra 3.2 20:47:50 10° SSW 20:52:09 36° W 20:56:29 10° NNW
Cosmos 2151 2.9 20:50:35 10° N 20:54:42 71° ENE 20:58:09 14° SSE
Cosmos 2322 Rocket 2.6 20:50:32 10° NNW 20:56:07 56° NE 21:00:46 15° SE
Helios 1A Rocket 4.4 20:53:26 10° N 20:56:14 29° WNW 20:59:00 10° SW
Cosmos 1486 Rocket 4.3 20:51:10 10° NNW 20:56:22 56° ENE 21:00:35 16° SE
Cosmos 1607 4.4 20:51:58 10° SW 20:58:06 66° NW 21:04:23 10° NE
IRS-1C Rocket 4.3 20:53:40 14° SE 20:58:09 60° ENE 21:03:22 10° N
Cosmos 909 Rocket 4.0 20:52:59 10° SW 20:59:18 87° SE 21:05:54 10° NE
Cosmos 2061 Rocket 4.1 20:53:27 10° S 20:59:41 83° W 21:06:03 10° N
Cosmos 2082 Rocket 2.8 20:55:19 10° SW 21:00:59 64° WNW 21:06:41 10° NNE
USA 306 2.9 20:59:42 10° W 21:02:32 38° NNW 21:04:26 10° ENE
CZ-4B R/B 2.4 21:09:42 19° SSE 21:12:04 88° WSW 21:15:33 10° NNW
USA 186 3.0 21:11:04 11° SSW 21:13:26 29° W 21:15:55 10° NNW
Okean O Rocket 2.7 21:11:45 10° SSW 21:15:46 39° W 21:19:51 10° NNW
Cosmos 1805 2.8 21:17:27 10° N 21:20:43 67° ENE 21:22:21 26° SSE
NOSS 3-3 (C) 3.9 21:15:29 10° SW 21:20:49 79° NW 21:27:18 10° NE
Cosmos 2278 3.8 21:16:28 10° NNW 21:22:12 77° WSW 21:26:23 19° SSE
Meteor 1-5 Rocket 4.3 21:19:19 10° N 21:25:05 75° ENE 21:29:22 19° SSE
COSMOS 2428 4.3 21:20:23 10° NNW 21:25:07 26° NE 21:29:50 10° E
SL-16 R/B 2.6 21:21:06 10° NW 21:26:39 58° WSW 21:30:55 17° S
Cosmos 1544 Rocket 4.0 21:23:12 10° SSW 21:27:30 62° WNW 21:31:48 10° N
Okean 1-7 Rocket 3.6 21:23:21 10° N 21:27:49 69° ENE 21:30:35 23° SSE
CZ-2C R/B 1.8 21:27:14 34° SSE 21:28:17 79° ENE 21:31:04 10° NNW
NOSS 3 (A) 4.3 21:28:49 10° NW 21:31:04 58° SW 21:31:48 39° S
NOSS 3-4 (A) 3.8 21:26:21 10° NW 21:33:00 79° SW 21:38:39 20° SSE
NOSS 3-4 (C) 3.9 21:26:59 10° NW 21:33:39 80° SW 21:39:17 20° SE
Cosmos-2242 4.2 21:34:03 21° ESE 21:35:16 24° E 21:38:37 10° NE
Okean-O 4.4 21:33:08 10° SSW 21:36:49 27° W 21:40:33 10° NW
Cosmos 2034 Rocket 4.4 21:32:54 20° SSE 21:37:08 50° E 21:43:12 10° NNE
Cosmos 1933 3.9 21:37:02 10° SSW 21:40:41 53° WNW 21:44:26 10° N
Ariane Rocket 3.3 21:38:07 18° S 21:41:48 64° WSW 21:46:51 10° NNW
COSMOS 2406 3.7 21:36:26 10° SW 21:42:08 63° WNW 21:47:52 10° NNE
SPOT 3 Rocket 4.3 21:41:43 15° S 21:45:50 47° W 21:50:48 10° NNW
Nadezhda 4 Rocket 4.0 21:45:51 10° N 21:52:00 83° W 21:56:13 22° S
Cosmos 2333 Rocket 3.1 21:49:14 10° NW 21:54:32 41° WSW 21:58:17 18° S
Helios 1B rocket 3.3 21:55:11 24° ESE 21:56:18 30° ENE 21:59:25 10° N
Cosmos 1763 Rocket 3.6 21:53:12 22° S 21:56:29 59° ESE 22:01:40 10° NNE
Cosmos 1825 Rocket 3.6 21:52:40 10° NNW 21:57:01 74° W 21:59:17 28° S
Cosmos 1470 4.3 21:55:12 10° NNE 21:57:27 17° ENE 21:58:12 16° E
Okean 1 2.9 21:56:18 34° S 21:57:44 82° E 22:01:21 10° NNE
Cosmos 1536 3.5 21:54:42 10° N 21:58:08 35° ENE 21:59:12 29° ESE
Cosmos 1707 3.0 21:59:51 31° E 21:59:51 31° E 22:02:11 10° NNE
Cosmos 2221 4.4 21:59:07 14° E 21:59:49 15° E 22:02:10 10° NE
Cosmos 1833 4.2 21:57:58 20° S 22:01:54 61° ESE 22:07:27 10° NE
Cosmos 1461 3.8 21:58:27 10° WSW 22:01:59 43° NW 22:05:31 10° NNE
Cosmos 1953 Rocket 3.5 21:58:45 10° N 22:03:07 77° E 22:04:56 34° SSE
Cosmos 44 3.6 21:58:28 10° NW 22:03:54 71° NE 22:06:56 26° SE
Cosmos 990 Rocket 3.9 21:59:04 10° NNW 22:04:16 88° WSW 22:06:54 30° SSE
Cosmos 2360 Rocket 2.6 22:02:47 10° NW 22:08:18 53° WSW 22:11:23 25° S
Cosmos 2195 Rocket 4.5 22:03:59 10° N 22:10:14 87° W 22:13:53 26° S
Cosmos 2322 4.3 22:04:44 10° NNW 22:10:17 49° NE 22:13:47 22° ESE
ISS -3.8 22:09:39 10° WNW 22:13:01 81° NNE 22:14:19 35° E
USA 290 2.5 22:12:10 31° SW 22:13:28 63° WNW 22:16:36 10° NNE
BREEZE-M DEB (TANK) 2.7 22:11:58 10° W 22:13:12 26° W 22:13:12 26° W
Cosmos 2026 Rocket 4.0 22:08:12 10° N 22:14:38 87° E 22:18:17 28° S
Cosmos 2058 Rocket 3.3 22:14:25 37° SSE 22:15:47 53° E 22:20:01 10° NNE
Helios 1A 2.8 22:17:32 10° NNE 22:21:28 65° ESE 22:22:30 44° SSE
Cosmos 2219 Rocket 2.3 22:16:09 10° NW 22:21:46 65° WSW 22:24:29 31° S
Cosmos 1975 3.9 22:21:23 10° N 22:24:37 28° ENE 22:25:24 26° E
Cosmos 2098 Rocket 4.3 22:20:58 12° SW 22:25:02 37° WNW 22:28:53 10° N
KORONAS-FOTON 3.8 22:25:06 46° ESE 22:25:16 47° E 22:28:34 10° NNE
Cosmos 1076 Rocket 4.1 22:22:10 10° NNW 22:26:18 50° W 22:28:03 30° SSW
Cosmos 841 Rocket 4.4 22:28:15 28° ESE 22:29:21 30° E 22:33:52 10° NE
USA 306 4.2 22:28:02 10° WNW 22:28:32 13° NW 22:28:32 13° NW
RESURS DK-1 2.9 22:27:19 10° NNW 22:31:13 49° NE 22:32:35 33° ESE
ARIANE 5 R/B 3.2 22:32:16 32° ESE 22:33:53 46° ENE 22:38:10 10° N
ALOS 2 3.4 22:33:58 29° ESE 22:35:34 40° ENE 22:39:42 10° N
Cosmos 2322 Rocket 3.5 22:35:01 10° NW 22:39:51 29° WSW 22:42:34 20° SSW
Cosmos 1766 3.3 22:42:23 10° NNW 22:45:29 45° W 22:45:46 43° WSW
Cosmos 372 Rocket 3.9 22:40:51 10° NNW 22:46:00 86° WSW 22:47:53 40° SSE
Cosmos 1271 Rocket 2.7 22:46:13 51° E 22:46:13 51° E 22:49:29 10° NNE
Cosmos 1842 2.8 22:47:39 63° ENE 22:47:39 63° ENE 22:50:38 10° NNE
Spot 4 3.9 22:51:57 40° SE 22:53:37 72° ENE 22:58:24 10° N
Meteor 2-9 Rocket 4.2 22:48:20 10° N 22:53:44 72° ENE 22:55:56 37° SSE
PSLV R/B 4.3 22:51:23 10° NNE 22:55:22 36° E 22:55:59 34° ESE
Cosmos 540 Rocket 4.0 22:52:54 17° SW 22:56:45 55° WNW 23:01:49 10° NNE
Cosmos 2237 Rocket 3.0 22:53:15 10° NNW 22:58:44 45° NE 23:02:17 20° ESE
Aureole 1 Rocket 4.2 22:54:09 10° NNW 22:59:48 57° WSW 23:02:46 32° S
BREEZE-M DEB (TANK) 4.3 22:43:00 10° SW 23:00:40 71° SSE 23:04:49 10° ENE
CZ-2C R/B 3.8 22:58:57 20° ESE 23:01:47 33° ENE 23:06:24 10° N
Cosmos 1092 Rocket 4.4 22:56:01 10° NNW 23:01:59 53° W 23:05:07 28° SSW
Cosmos 1980 4.3 22:57:24 10° NNW 23:02:56 51° NE 23:06:13 24° ESE
ARGOS Delta rocket 4.2 22:59:43 10° NNE 23:04:49 59° E 23:06:31 40° SSE
Cosmos 1937 Rocket 3.4 23:02:26 10° NNW 23:07:37 81° ENE 23:09:26 41° SSE
COSMOS 2428 2.7 23:04:17 10° NNW 23:09:59 79° WSW 23:12:10 39° SSE
Geosat 4.5 23:06:36 10° NNE 23:11:32 58° NW 23:15:10 18° SW
Cosmos-2242 4.1 23:10:18 24° WSW 23:12:06 35° WNW 23:15:55 10° N
Cosmos 2227 Rocket 4.0 23:11:04 15° ESE 23:12:09 16° E 23:15:24 10° ENE
NOSS 0 Rocket 3.9 23:06:23 10° NNW 23:12:35 88° NE 23:15:26 35° SSE
Cosmos 468 Rocket 4.2 23:10:30 27° SW 23:13:22 68° WNW 23:18:37 10° NNE
Meteor 1-11 Rocket 3.8 23:07:51 10° N 23:13:33 70° ENE 23:15:45 37° SSE
Meteor 1-10 Rocket 4.5 23:17:23 38° SSE 23:19:36 63° E 23:25:29 10° NNE
MetOp-A 4.2 23:18:10 36° SE 23:19:56 57° ENE 23:24:30 10° N
Cosmos 2263 Rocket 4.3 23:20:54 11° ESE 23:22:11 11° E 23:23:57 10° ENE
Cosmos 1812 Rocket 3.5 23:25:18 55° SSE 23:26:12 77° E 23:30:39 10° NNE
Cosmos 1238 Rocket 3.9 23:25:54 30° ESE 23:26:26 31° E 23:30:16 10° NNE
Helios 1B rocket 3.7 23:29:08 23° W 23:29:19 23° W 23:32:09 10° NW
Cosmos 1470 3.4 23:28:28 10° NNW 23:31:24 33° W 23:31:24 33° W
USA 234 3.4 23:25:32 10° ENE 23:31:54 51° SE 23:34:29 34° SSW
SeaSat 1 3.7 23:28:37 15° ESE 23:32:13 37° NE 23:36:43 10° NNW
CZ-2C R/B 3.6 23:28:07 10° NNE 23:33:46 54° E 23:35:48 37° SSE
Meteor 1-27 Rocket 4.1 23:32:34 37° SSE 23:34:37 55° E 23:40:13 10° NNE
ACS3 Solar Sail 3.3 23:30:03 10° NE 23:34:42 23° E 23:37:20 17° ESE
Helios 1B 4.4 23:30:40 10° NNE 23:34:57 84° ESE 23:35:46 57° S
Cosmos 2221 2.6 23:35:23 48° SW 23:36:19 63° WNW 23:40:30 10° N
ATLAS 2AS CENTAUR R/B 4.4 23:30:29 10° NW 23:36:31 32° NNE 23:42:31 10° E
BlueWalker 3 4.3 23:41:17 12° E 23:41:17 12° E 23:41:37 10° E
CZ-2C R/B 4.2 23:36:14 10° N 23:40:34 51° WNW 23:42:14 33° SW
Cosmos 1898 Rocket 4.1 23:36:04 10° NW 23:40:57 42° WSW 23:42:14 36° SW
Cosmos 2279 Rocket 4.4 23:37:48 28° SW 23:41:05 57° WNW 23:47:17 10° N
Cosmos 2297 Rocket 2.3 23:43:29 42° S 23:45:13 60° ESE 23:50:47 10° NE
Meteor 2-20 4.4 23:46:32 39° S 23:49:01 83° E 23:55:07 10° NNE
ISS -1.4 23:46:33 10° W 23:47:15 15° W 23:47:15 15° W
Landsat 5 4.3 23:47:30 10° NNE 23:51:14 34° E 23:51:40 33° ESE
NOSS 8 (F) 4.5 23:49:03 10° NW 23:51:35 62° NNW 23:51:35 62° NNW
SAR-Lupe-2 4.3 23:53:11 37° W 23:53:11 37° W 23:56:03 10° NNW
Meteor 2-10 Rocket 4.2 23:48:59 10° N 23:54:24 54° ENE 23:57:07 29° SE
Cosmos 1842 Rocket 4.5 23:53:33 32° ESE 23:54:29 36° E 23:58:31 10° NNE
GP-B 3.1 23:50:43 10° N 23:55:05 72° W 23:56:01 52° SSW
